Location: Henham
(51.9333°N, 0.2500°E)
Time: 17:57:59
(UTC+00:00)

CENTAUR R/B - Pass Details

Date: 23 October 2019
Orbit: 781 x 1407 km, 63.4° (Epoch: 07 November)

Event Time Altitude Azimuth Distance (km) Brightness Sun altitude
Rises 18:47:13 0° 200° (SSW) 3,456 5.6 -18.9°
Reaches altitude 10° 18:49:38 10° 194° (SSW) 2,590 4.8 -19.2°
Maximum altitude 18:55:24 48° 122° (ESE) 1,289 2.7 -20.1°
Enters shadow 18:58:27 30° 66° (ENE) 1,820 3.4 -20.6°
